Starlink 33707

operational
NORAD ID: 63401 Int'l Des: 2025-065 Owner: SPXS Country: US Constellation: starlink
LEOCIRCULAR

About Starlink 33707

Description loading...

Live Position

Loading 3D Globe...

Upcoming Passes

Altitude History

Altitude vs Time

uPlot chart will show altitude changes over time

Two-Line Element Set

1 63401U 25065C 25347.00150115 .00036555 00000-0 13321-2 0 9992
2 63401 42.9995 236.5213 0002159 286.7857 73.2758 15.27560987 39583
Epoch: Dec 13, 2025 • Age: 14 hours

Current Status

Altitude 488.0 km
Velocity 7.62 km/s
Sub-Earth Point -25.43°S, 89.6°W
Launch Date Mar 31, 2025
Age 0.7 years
Type internet

Technical Details

Classification Payload
Mass 575.00 kg
Dry Mass 530.00 kg
Total Mass 575.00 kg
Length 0.30 m
Diameter 4.10 m
Span 29.00 m
Shape Box + pan
Manufacturer SPXS
Bus Type Starlink V2MO
Phase Status In Orbit
Owner/State SPXS/US

Large Constellations

Loading constellations...